カタログに戻る

USA 279

運用中軍事GEO
NORAD 42949·PAYLOAD·🇺🇸 United States

打ち上げ Oct 15, 2017 から Cape Canaveral Space Force Station

Loading…

TLE

最新Source: Mike McCants

元期: Sep 14, 2026, 20:52 UTC

1 42949U 17066A   26257.86979159  .00000000  00000-0  00000-0 0    07
2 42949   3.4231  39.0186 0003867 107.2470 252.8141  1.00270000 18344

AllMySatでUSA 279をリアルタイム追跡

Download on the App Store